| time (UTC) | temp F | wind direction | speed knots | gust knots | rain 1hr in | rain 24hr in | rain mn in | humidity % | barometer mb |
| 20260504201527 | 73 | 116 | 2.6 | 8.7 | 0.00 | 0.00 | 0.00 | 48 | 1009.8 |
| 20260504200030 | 72 | 140 | 2.6 | 8.7 | 0.00 | 0.00 | 0.00 | 49 | 1009.8 |
| 20260504194523 | 71 | 103 | 3.5 | 7.0 | 0.00 | 0.00 | 0.00 | 48 | 1009.8 |
| 20260504193025 | 70 | 164 | 6.1 | 7.8 | 0.00 | 0.00 | 0.00 | 47 | 1009.8 |
| 20260504191521 | 71 | 147 | 3.5 | 7.0 | 0.00 | 0.00 | 0.00 | 49 | 1009.9 |
| 20260504190021 | 70 | 152 | 4.3 | 7.0 | 0.00 | 0.00 | 0.00 | 49 | 1010.0 |
| 20260504184520 | 69 | 150 | 5.2 | 8.7 | 0.00 | 0.00 | 0.00 | 50 | 1010.0 |
| 20260504183020 | 70 | 153 | 5.2 | 7.8 | 0.00 | 0.00 | 0.00 | 48 | 1009.9 |
| 20260504181519 | 71 | 150 | 4.3 | 7.8 | 0.00 | 0.00 | 0.00 | 47 | 1010.0 |
| 20260504180018 | 70 | 225 | 2.6 | 7.8 | 0.00 | 0.00 | 0.00 | 49 | 1010.2 |
| 20260504174517 | 69 | 171 | 3.5 | 6.1 | 0.00 | 0.00 | 0.00 | 51 | 1010.2 |
| 20260504173016 | 68 | 153 | 3.5 | 7.0 | 0.00 | 0.00 | 0.00 | 53 | 1010.3 |
| 20260504171533 | 68 | 164 | 2.6 | 4.3 | 0.00 | 0.00 | 0.00 | 55 | 1010.3 |
| 20260504081527 | 61 | 267 | 0.0 | 2.6 | 0.00 | 0.00 | 0.00 | 65 | 1008.3 |
| 20260504050007 | 67 | 261 | 2.6 | 4.3 | 0.00 | 0.00 | 0.00 | 58 | 1009.0 |
| 20260504044508 | 67 | 261 | 3.5 | 5.2 | 0.00 | 0.00 | 0.00 | 60 | 1008.9 |
| 20260504043006 | 65 | 286 | 1.7 | 3.5 | 0.00 | 0.00 | 0.00 | 62 | 1008.9 |
| 20260504041506 | 65 | 286 | 2.6 | 3.5 | 0.00 | 0.00 | 0.00 | 61 | 1008.8 |
| 20260504040007 | 65 | 295 | 0.9 | 3.5 | 0.00 | 0.00 | 0.00 | 58 | 1008.8 |
| 20260504034505 | 65 | 14 | 0.0 | 1.7 | 0.00 | 0.00 | 0.00 | 58 | 1008.8 |
| 20260504033004 | 66 | 14 | 0.9 | 2.6 | 0.00 | 0.00 | 0.00 | 63 | 1008.8 |
| 20260504031504 | 68 | 14 | 0.0 | 0.9 | 0.00 | 0.00 | 0.00 | 60 | 1008.7 |
| 20260504030003 | 70 | 14 | 0.0 | 1.7 | 0.00 | 0.00 | 0.00 | 56 | 1008.8 |
| 20260504024505 | 74 | 14 | 0.0 | 0.0 | 0.00 | 0.00 | 0.00 | 51 | 1008.8 |
| 20260504023002 | 76 | 14 | 0.0 | 0.9 | 0.00 | 0.00 | 0.00 | 48 | 1009.0 |
| 20260504021601 | 76 | 14 | 0.9 | 1.7 | 0.00 | 0.00 | 0.00 | 48 | 1009.2 |
| 20260504014618 | 78 | 14 | 0.0 | 2.6 | 0.00 | 0.00 | 0.00 | 45 | 1009.3 |
| 20260504013103 | 78 | 14 | 0.9 | 1.7 | 0.00 | 0.00 | 0.00 | 44 | 1009.5 |
| 20260504011559 | 77 | 14 | 0.9 | 2.6 | 0.00 | 0.00 | 0.00 | 45 | 1009.7 |
| 20260504010059 | 77 | 13 | 0.0 | 2.6 | 0.00 | 0.00 | 0.00 | 45 | 1009.8 |
| 20260504004553 | 77 | 11 | 0.9 | 2.6 | 0.00 | 0.00 | 0.00 | 45 | 1009.9 |
| 20260504003058 | 76 | 15 | 2.6 | 4.3 | 0.00 | 0.00 | 0.00 | 47 | 1010.1 |
| 20260504001549 | 74 | 162 | 1.7 | 3.5 | 0.00 | 0.00 | 0.00 | 47 | 1010.3 |
| 20260504000049 | 72 | 170 | 2.6 | 6.1 | 0.00 | 0.00 | 0.00 | 48 | 1010.4 |
| 20260503234550 | 71 | 161 | 3.5 | 6.1 | 0.00 | 0.00 | 0.00 | 50 | 1010.6 |
| 20260503233047 | 73 | 193 | 4.3 | 7.0 | 0.00 | 0.00 | 0.00 | 48 | 1010.7 |
| 20260503231545 | 74 | 219 | 0.9 | 4.3 | 0.00 | 0.00 | 0.00 | 49 | 1010.8 |
| 20260503230045 | 71 | 184 | 3.5 | 8.7 | 0.00 | 0.00 | 0.00 | 51 | 1010.9 |
| 20260503224544 | 74 | 165 | 4.3 | 7.8 | 0.00 | 0.00 | 0.00 | 48 | 1011.1 |
| 20260503223043 | 75 | 160 | 3.5 | 5.2 | 0.00 | 0.00 | 0.00 | 47 | 1011.3 |
| 20260503221541 | 76 | 167 | 2.6 | 4.3 | 0.00 | 0.00 | 0.00 | 45 | 1011.4 |
| 20260503220046 | 74 | 160 | 1.7 | 3.5 | 0.00 | 0.00 | 0.00 | 49 | 1011.5 |
| 20260503214537 | 74 | 144 | 1.7 | 4.3 | 0.00 | 0.00 | 0.00 | 49 | 1011.7 |
| 20260503213036 | 73 | 167 | 0.9 | 3.5 | 0.00 | 0.00 | 0.00 | 51 | 1011.8 |
| 20260503211534 | 74 | 110 | 0.9 | 5.2 | 0.00 | 0.00 | 0.00 | 49 | 1011.9 |
| 20260503210031 | 73 | 98 | 1.7 | 3.5 | 0.00 | 0.00 | 0.00 | 51 | 1012.2 |
| 20260503204527 | 71 | 79 | 1.7 | 4.3 | 0.00 | 0.00 | 0.00 | 54 | 1012.4 |
| 20260503203029 | 69 | 131 | 0.9 | 3.5 | 0.00 | 0.00 | 0.00 | 57 | 1012.6 |